SCP
-0 0 0 0 0 -0 -0 0 0 -0 -0 0 -0 0 0 0 -0 0 -0 -0 0 0 0 0 0 0 0 0 0 -0 -0 -0
-0 0 0 0 0 -0 -0 0 -0 -0 -0 0 -0 -0 0 0 0 0 0 0 0 0 0 0 0 0 0 -0 -0 -0 -0 -0
0 0 0 -0 -0 0 0 0 0 -0 -0 0 -0 0 0 0 0 0 0 0 0 0 0 0 0 0 0 -0 -0 -0 -0 -0
-0 -0 0 0 0 0 0 -0 -0 0 -0 -0 0 0 0 0 0 0 0 0 0 0 0 0 0 0 0 -0 -0 -0 -0 -0
0 -0 0 0 0 0 0 -0 -0 0 0 0 -0 -0 0 0 0 0 0 0 0 0 0 0 0 0 -0 -0 -0 -0 -0 -0
-0 -0 0 0 -0 0 0 0 0 0 -0 -0 0 -0 0 0 0 0 0 0 0 0 0 -0 0 -0 -0 -0 0 0 -0 -0
0 0 0 0 0 -0 -0 0 -0 -0 -0 -0 -0 -0 -0 0 -0 -0 -0 -0 -0 -0 -0 -0 -0 -0 -0 -0 -0 -0 -0 0
0 -0 0 0 0 -0 -0 -0 -0 0 -0 -0 -0 -0 -0 -0 0 0 -0 -0 -0 -0 -0 -0 -0 -0 -0 -0 -0 -0 -0 -0
0 -0 -0 0 0 0 0 0 -0 -0 -0 0 -0 -0 -0 -0 -0 -0 0 0 -0 -0 -0 -0 -0 0 0 -0 -0 -0 -0 -0
-0 -0 -0 -0 0 0 0 0 0 0 0 -0 -0 -0 -0 -0 0 -0 -0 -0 0 0 -0 -0 -0 0 0 0 0 0 -0 -0
-0 0 0 0 0 0 -0 0 -0 -0 -0 -0 0 0 0 0 -0 -0 -0 -0 0 0 -0 -0 0 0 0 0 0 0 0 0
0 0 0 0 0 0 -0 -0 -0 -0 -0 0 0 0 1 1 0 -0 -0 -0 0 0 0 0 0 0 0 0 0 0 0 0
0 0 0 0 -0 -0 0 -0 -0 -0 -0 0 0 1 1 1 1 1 1 0 0 0 0 0 1 0 0 0 0 0 0 0
-0 -0 0 0 0 -0 0 0 0 -0 -0 0 1 0 1 1 1 1 1 1 0 0 0 0 0 0 0 0 0 0 0 0
0 -0 0 0 0 -0 0 -0 -0 0 -0 0 0 0 0 1 1 1 1 1 1 0 0 0 0 0 0 0 0 0 0 0
-0 0 0 0 0 0 -0 -0 -0 -1 -0 -0 0 0 0 0 0 0 0 0 0 1 1 1 1 0 0 0 0 0 0 0
0 0 0 0 0 0 0 0 0 0 -0 -0 0 0 0 0 0 0 0 0 0 1 1 1 0 0 0 0 0 0 0 0
-0 0 0 0 0 0 1 1 0 -0 -0 -1 0 0 0 0 0 0 0 0 0 0 0 0 0 0 0 0 0 0 0 0
-0 0 0 0 0 0 0 1 1 0 0 -1 -1 -0 0 0 0 0 0 0 0 0 0 0 0 0 0 0 0 0 0 0
0 0 0 0 0 0 0 0 1 0 0 0 -0 0 0 0 0 0 0 0 0 0 0 0 0 0 0 0 0 0 0 0
Wind_Speed_500mb
8 6 1 3 7 10 8 11 4 16 35 20 21 40 41 54 49 44 38 34 33 32 31 31 29 28 27 26 26 26 26 25
8 9 8 11 11 43 43 22 21 26 22 31 27 34 44 51 45 43 40 37 36 35 33 32 30 28 27 27 26 25 25 25
8 10 5 31 50 42 31 28 40 30 19 25 36 47 50 46 44 42 43 39 35 33 31 29 28 27 25 25 25 25 25 25
6 11 9 11 27 48 52 59 61 53 39 22 44 52 49 41 38 36 38 36 34 32 29 27 27 25 24 23 24 24 24 25
12 14 11 15 19 26 39 47 20 54 24 44 50 39 45 36 32 31 31 32 30 30 28 26 23 22 21 21 22 23 24 23
7 19 10 8 6 39 30 10 47 59 14 37 64 41 40 33 27 28 28 29 30 30 30 26 24 21 21 19 20 20 22 23
5 17 5 10 3 8 25 46 13 7 53 61 58 51 44 37 30 34 32 31 30 29 27 27 28 22 24 25 26 24 21 14
15 39 15 18 18 9 18 18 14 37 60 56 58 62 45 38 36 33 35 34 27 26 23 21 25 24 18 17 19 20 20 22
29 60 70 35 26 35 43 17 15 57 66 62 64 61 49 42 33 34 33 37 27 21 23 17 17 13 12 10 8 12 17 20
43 66 69 48 48 35 39 23 45 59 57 63 72 66 56 47 43 39 35 33 25 23 20 20 18 8 6 9 4 9 12 9
49 47 57 50 26 9 26 37 48 58 56 61 53 59 56 55 51 42 38 44 31 17 10 11 16 9 8 9 9 8 5 7
32 45 35 25 6 3 45 46 51 60 55 33 40 43 53 54 60 62 52 48 37 28 22 22 22 19 14 13 12 9 10 12
16 35 13 43 10 9 20 45 57 39 41 48 45 50 66 67 69 62 52 43 33 24 19 18 26 32 32 22 19 18 18 18
23 27 36 14 14 19 49 46 38 51 56 47 39 38 43 45 45 46 41 33 26 23 24 22 23 29 25 24 26 25 26 28
14 48 25 7 16 37 59 52 55 65 58 46 36 28 29 32 35 36 36 36 31 25 22 18 22 25 25 22 21 18 23 25
11 22 26 27 20 40 61 63 60 66 55 50 40 31 28 29 30 29 27 25 30 27 20 19 22 20 22 19 19 17 19 15
17 13 16 26 31 46 63 52 50 63 59 49 41 38 35 32 27 24 24 24 25 30 26 25 24 23 22 18 10 2 5 14
14 7 13 18 35 40 45 61 76 70 68 67 59 54 45 37 29 23 22 22 27 30 31 28 25 30 24 15 7 7 13 17
10 6 11 16 4 9 15 40 60 70 83 84 82 72 58 49 39 31 25 26 27 28 27 27 27 27 21 12 7 10 14 20
6 9 7 7 7 11 20 30 44 56 65 84 84 76 67 56 42 31 26 26 30 29 26 28 34 29 17 10 3 2 7 15
Wind_Direction_500mb
101 63 191 187 178 133 104 121 14 84 64 72 110 112 136 144 142 136 137 138 137 134 131 125 118 111 104 98 93 89 86 86
89 189 206 181 162 132 135 112 97 97 66 92 122 133 139 138 139 139 136 134 129 126 122 118 114 111 108 103 99 94 90 87
88 233 52 123 137 143 115 106 98 97 100 97 117 120 126 135 138 140 134 132 127 122 118 116 114 111 107 103 98 92 86 81
63 45 56 29 144 124 99 102 104 108 112 105 132 127 125 124 135 135 132 133 128 125 122 119 115 111 107 102 95 89 83 80
145 127 100 126 123 119 122 135 139 127 119 140 152 147 135 127 130 134 134 129 127 122 117 112 107 103 97 90 85 82 78 83
166 165 94 143 242 108 76 79 133 121 151 160 163 159 140 127 117 130 127 122 120 116 107 99 83 83 77 74 73 76 76 75
12 89 121 151 3 11 85 128 147 76 148 147 162 161 155 145 142 136 134 125 119 123 104 100 73 84 77 70 65 69 55 53
144 128 110 99 98 86 92 43 51 134 140 149 161 165 167 171 167 163 150 144 132 128 122 99 88 86 70 63 57 58 55 44
134 130 130 123 136 147 129 141 238 155 161 162 168 177 186 180 174 175 154 153 148 151 146 125 112 87 67 66 67 48 57 41
150 130 129 143 137 149 151 144 156 163 166 169 182 188 190 187 189 179 172 173 160 159 145 132 129 93 89 113 115 87 70 54
159 157 141 144 150 218 164 129 153 167 181 186 192 195 197 191 193 183 155 158 165 162 148 137 135 138 132 130 121 153 195 218
141 124 140 140 122 57 175 160 169 169 189 175 173 172 176 170 163 163 156 161 162 159 171 186 187 177 209 220 226 235 259 255
159 145 124 120 10 264 112 169 174 175 163 151 141 139 143 148 150 158 162 168 182 181 190 208 213 221 221 227 233 244 244 247
217 209 173 127 209 240 172 176 193 174 161 157 153 156 155 157 161 162 166 184 206 213 224 234 221 212 214 222 232 240 247 260
148 205 163 196 160 222 185 182 170 157 156 156 154 164 170 179 185 186 189 194 209 218 222 212 208 203 214 216 234 240 258 276
270 190 197 185 176 190 199 174 163 158 166 167 173 179 189 194 197 197 195 190 202 205 199 195 197 203 218 227 247 268 291 305
270 250 127 173 158 182 183 164 162 170 181 181 193 189 201 207 204 209 215 205 202 202 187 188 177 197 217 229 213 186 19 12
276 38 84 161 175 182 175 180 180 176 176 177 176 179 195 208 216 217 214 206 199 195 190 193 213 206 220 199 158 67 35 39
210 355 39 119 26 186 222 195 191 187 184 182 185 181 190 199 206 209 202 195 193 192 192 192 197 202 193 179 107 32 40 42
104 113 200 115 249 228 212 203 202 186 178 180 177 187 190 192 191 195 196 194 200 192 180 171 180 192 191 175 116 99 67 62
Wind_Speed_850mb
8 6 1 3 7 10 8 11 4 16 35 20 21 40 41 54 49 44 38 34 33 32 31 31 29 28 27 26 26 26 26 25
8 9 8 11 11 43 43 22 21 26 22 31 27 34 44 51 45 43 40 37 36 35 33 32 30 28 27 27 26 25 25 25
8 10 5 31 50 42 31 28 40 30 19 25 36 47 50 46 44 42 43 39 35 33 31 29 28 27 25 25 25 25 25 25
6 11 9 11 27 48 52 59 61 53 39 22 44 52 49 41 38 36 38 36 34 32 29 27 27 25 24 23 24 24 24 25
12 14 11 15 19 26 39 47 20 54 24 44 50 39 45 36 32 31 31 32 30 30 28 26 23 22 21 21 22 23 24 23
7 19 10 8 6 39 30 10 47 59 14 37 64 41 40 33 27 28 28 29 30 30 30 26 24 21 21 19 20 20 22 23
5 17 5 10 3 8 25 46 13 7 53 61 58 51 44 37 30 34 32 31 30 29 27 27 28 22 24 25 26 24 21 14
15 39 15 18 18 9 18 18 14 37 60 56 58 62 45 38 36 33 35 34 27 26 23 21 25 24 18 17 19 20 20 22
29 60 70 35 26 35 43 17 15 57 66 62 64 61 49 42 33 34 33 37 27 21 23 17 17 13 12 10 8 12 17 20
43 66 69 48 48 35 39 23 45 59 57 63 72 66 56 47 43 39 35 33 25 23 20 20 18 8 6 9 4 9 12 9
49 47 57 50 26 9 26 37 48 58 56 61 53 59 56 55 51 42 38 44 31 17 10 11 16 9 8 9 9 8 5 7
32 45 35 25 6 3 45 46 51 60 55 33 40 43 53 54 60 62 52 48 37 28 22 22 22 19 14 13 12 9 10 12
16 35 13 43 10 9 20 45 57 39 41 48 45 50 66 67 69 62 52 43 33 24 19 18 26 32 32 22 19 18 18 18
23 27 36 14 14 19 49 46 38 51 56 47 39 38 43 45 45 46 41 33 26 23 24 22 23 29 25 24 26 25 26 28
14 48 25 7 16 37 59 52 55 65 58 46 36 28 29 32 35 36 36 36 31 25 22 18 22 25 25 22 21 18 23 25
11 22 26 27 20 40 61 63 60 66 55 50 40 31 28 29 30 29 27 25 30 27 20 19 22 20 22 19 19 17 19 15
17 13 16 26 31 46 63 52 50 63 59 49 41 38 35 32 27 24 24 24 25 30 26 25 24 23 22 18 10 2 5 14
14 7 13 18 35 40 45 61 76 70 68 67 59 54 45 37 29 23 22 22 27 30 31 28 25 30 24 15 7 7 13 17
10 6 11 16 4 9 15 40 60 70 83 84 82 72 58 49 39 31 25 26 27 28 27 27 27 27 21 12 7 10 14 20
6 9 7 7 7 11 20 30 44 56 65 84 84 76 67 56 42 31 26 26 30 29 26 28 34 29 17 10 3 2 7 15
Wind_Direction_850mb
101 63 191 187 178 133 104 121 14 84 64 72 110 112 136 144 142 136 137 138 137 134 131 125 118 111 104 98 93 89 86 86
89 189 206 181 162 132 135 112 97 97 66 92 122 133 139 138 139 139 136 134 129 126 122 118 114 111 108 103 99 94 90 87
88 233 52 123 137 143 115 106 98 97 100 97 117 120 126 135 138 140 134 132 127 122 118 116 114 111 107 103 98 92 86 81
63 45 56 29 144 124 99 102 104 108 112 105 132 127 125 124 135 135 132 133 128 125 122 119 115 111 107 102 95 89 83 80
145 127 100 126 123 119 122 135 139 127 119 140 152 147 135 127 130 134 134 129 127 122 117 112 107 103 97 90 85 82 78 83
166 165 94 143 242 108 76 79 133 121 151 160 163 159 140 127 117 130 127 122 120 116 107 99 83 83 77 74 73 76 76 75
12 89 121 151 3 11 85 128 147 76 148 147 162 161 155 145 142 136 134 125 119 123 104 100 73 84 77 70 65 69 55 53
144 128 110 99 98 86 92 43 51 134 140 149 161 165 167 171 167 163 150 144 132 128 122 99 88 86 70 63 57 58 55 44
134 130 130 123 136 147 129 141 238 155 161 162 168 177 186 180 174 175 154 153 148 151 146 125 112 87 67 66 67 48 57 41
150 130 129 143 137 149 151 144 156 163 166 169 182 188 190 187 189 179 172 173 160 159 145 132 129 93 89 113 115 87 70 54
159 157 141 144 150 218 164 129 153 167 181 186 192 195 197 191 193 183 155 158 165 162 148 137 135 138 132 130 121 153 195 218
141 124 140 140 122 57 175 160 169 169 189 175 173 172 176 170 163 163 156 161 162 159 171 186 187 177 209 220 226 235 259 255
159 145 124 120 10 264 112 169 174 175 163 151 141 139 143 148 150 158 162 168 182 181 190 208 213 221 221 227 233 244 244 247
217 209 173 127 209 240 172 176 193 174 161 157 153 156 155 157 161 162 166 184 206 213 224 234 221 212 214 222 232 240 247 260
148 205 163 196 160 222 185 182 170 157 156 156 154 164 170 179 185 186 189 194 209 218 222 212 208 203 214 216 234 240 258 276
270 190 197 185 176 190 199 174 163 158 166 167 173 179 189 194 197 197 195 190 202 205 199 195 197 203 218 227 247 268 291 305
270 250 127 173 158 182 183 164 162 170 181 181 193 189 201 207 204 209 215 205 202 202 187 188 177 197 217 229 213 186 19 12
276 38 84 161 175 182 175 180 180 176 176 177 176 179 195 208 216 217 214 206 199 195 190 193 213 206 220 199 158 67 35 39
210 355 39 119 26 186 222 195 191 187 184 182 185 181 190 199 206 209 202 195 193 192 192 192 197 202 193 179 107 32 40 42
104 113 200 115 249 228 212 203 202 186 178 180 177 187 190 192 191 195 196 194 200 192 180 171 180 192 191 175 116 99 67 62